ARABSAT-5C (37810 NORAD) Tracking and Keplerian Element Data

This shows tracking and keplerian element data for the satellite.

Feedback or suggestion? Click here.




ElementValue
Catalog37810
NameARABSAT-5C
Epoch Orbit4903
Epoch Day34.68757037
Epoch Year2025
RAAN352.6653
Inclination0.0505
Eccentricity0.0002766
Argument of Perigee272.489
Mean Anonmoly136.4546
Mean Motion1.00273456
Decay Rate1.28E-06
L11 37810U 11049B 25034.68757037 .00000128 00000+0 00000+0 0 9990
L22 37810 0.0505 352.6653 0002766 272.4890 136.4546 1.00273456 49037



Live tracking and technical data element details for ARABSAT-5C (NORAD 37810). ARABSAT-5C can be tracked NOW for your location showing map with azimuth and elevation plus other details from your city location.







IsCatalogInMostPopularTable: catalog: 37810, numindb: 570
Update: records affected: 1



GetName: 37810 ARABSAT-5C

Hit Count: updated at: Thu, 15 May 2025 18:25:05 GMT